Regional Weather Roundup
Issued by NWS

Home | Current Version | Previous Version | Text Only | Print | Product List | Glossary On
Versions: 1 2 3 4 5 6 7 8 9 10 11 12 13 14 15 16 17 18 19 20 21 22 23 24 25 26 27 28 29 30 31 32 33 34 35 36 37 38 39 40 41 42 43 44 45 46 47 48 49 50
944
ASUS43 KLSX 192157
RWRMO

WEATHER SUMMARY FOR MISSOURI
NATIONAL WEATHER SERVICE SPRINGFIELD MO
500 PM CDT TUE SEP 19 2017

NOTE: "FAIR" INDICATES FEW OR NO CLOUDS BELOW 12,000 FEET WITH NO
       SIGNIFICANT WEATHER AND/OR OBSTRUCTIONS TO VISIBILITY.
       CURRENT SKY AND/OR WEATHER CONDITIONS ARE NOT AVAILABLE FOR
       CHILLICOTHE AND FARMINGTON.

MOZ001>031-035>038-043-044-053-054-192300-
...NORTHERN AND WESTERN MISSOURI...

CITY           SKY/WX    TMP DP  RH WIND       PRES   REMARKS
KANSAS CTY INT MOSUNNY   86  70  58 S20G28    29.72F HX  90
LEE`S SUMMIT   SUNNY     87  71  58 S15G28    29.75F HX  93
ST JOSEPH      SUNNY     87  71  58 S17G29    29.69F HX  93
CHILLICOTHE      N/A     86  68  54 SE10G18   29.77F

$$
MOZ066>068-077>081-088>096-101>105-192300-
...SOUTHWEST MISSOURI...

CITY           SKY/WX    TMP DP  RH WIND       PRES   REMARKS
SPRINGFIELD    MOSUNNY   89  68  49 S12       29.83F HX  93
JOPLIN         SUNNY     88  68  51 S15G24    29.80F HX  91
BRANSON        MOSUNNY   90  64  43 S9        29.87F HX  91

$$
MOZ032>034-039>042-045>050-055>058-069>072-192300-
...CENTRAL MISSOURI...

CITY           SKY/WX    TMP DP  RH WIND       PRES   REMARKS
COLUMBIA       NOT AVBL
JEFFERSON CITY SUNNY     87  69  54 SE9       29.81F HX  91
ROLLA          SUNNY     89  64  43 SW10      29.86F HX  90
SEDALIA        SUNNY     87  70  56 S16       29.82F HX  92
WARRENSBURG    MOSUNNY   86  68  54 S14G22    29.78F

$$
MOZ051-052-059>065-192300-
...EAST CENTRAL MISSOURI...

CITY           SKY/WX    TMP DP  RH WIND       PRES   REMARKS
ST LOUIS INTL  MOSUNNY   89  65  44 N6        29.86F HX  91

$$
MOZ072>076-082>087-097>100-106>115-192300-
...SOUTH CENTRAL AND SOUTHEAST MISSOURI...

CITY           SKY/WX    TMP DP  RH WIND       PRES   REMARKS
CAPE GIRARDEAU MOSUNNY   89  65  44 VRB3      29.86F HX  91
POPLAR BLUFF   SUNNY     91  64  40 SW9       29.85F HX  92

$$



USA.gov is the U.S. government's official web portal to all federal, state and local government web resources and services.